Location: Grand Lake
(37.8117°N, 122.2458°W)
Time: 16:27:36
(UTC+00:00)

Daily predictions for brighter satellites

Satellite Brightness Start Highest point End
(mag) Time Altitude Azimuth Time Altitude Azimuth Time Altitude Azimuth
Cosmos-2242 4.3 12:05:10 22° WNW 12:05:20 22° WNW 12:08:44 10° NNW
Cosmos 1892 3.1 12:07:03 10° NNW 12:10:39 39° W 12:12:15 26° SW
H-2A R/B 2.3 12:07:08 10° N 12:11:21 78° WNW 12:14:26 17° SSW
PSLV R/B 3.9 12:09:01 10° S 12:13:12 70° WSW 12:17:26 10° NNW
IDEFIX/ARIANE 42P 2.5 12:08:35 10° N 12:13:49 80° WNW 12:19:04 10° SSW
Timation 1 Rocket 4.4 12:08:43 12° SSW 12:14:16 80° ESE 12:20:17 10° NNE
Meteor 2-3 Rocket 4.4 12:09:24 10° N 12:14:54 56° ENE 12:20:20 10° SSE
IRIS 3.8 12:18:50 25° WNW 12:20:11 87° NNE 12:23:36 10° ESE
Cosmos 2084 Rocket 3.6 12:21:23 20° SW 12:24:19 61° NW 12:28:46 10° NNE
Cosmos 2151 4.2 12:24:56 10° NW 12:28:10 22° W 12:29:40 18° WSW
CZ-2C R/B 2.8 12:24:27 10° NNE 12:28:59 58° E 12:33:33 10° S
USA 267 4.5 12:25:16 10° SSW 12:29:10 16° WSW 12:33:05 10° W
Cosmos 1238 Rocket 2.9 12:26:56 10° NNW 12:29:45 33° W 12:32:49 10° SSW
ATLAS CENTAUR R/B 3.7 12:25:47 10° S 12:29:57 28° ESE 12:34:11 10° NE
Meteor 2-10 Rocket 3.7 12:26:06 10° SSW 12:31:33 64° W 12:37:14 10° N
Cosmos 968 Rocket 4.0 12:26:28 10° NNW 12:31:37 63° ENE 12:36:45 10° SSE
RESURS DK-1 2.2 12:28:26 10° NNW 12:32:34 79° WSW 12:36:41 10° SSE
CRYOSAT 2 4.3 12:28:01 10° S 12:32:52 67° W 12:37:44 10° N
Cosmos 1408 Rocket 4.4 12:29:51 10° NNW 12:33:44 29° W 12:37:34 10° SSW
Meteor 1-31 Rocket 3.2 12:32:18 10° NNE 12:36:14 65° E 12:40:07 10° S
Cosmos 921 Rocket 2.9 12:32:06 10° SSW 12:36:19 80° WNW 12:40:38 10° NNE
Cosmos 1992 Rocket 4.0 12:31:10 10° SSW 12:36:22 69° WNW 12:41:36 10° NNE
Cosmos 1340 Rocket 3.2 12:32:30 10° S 12:36:33 67° E 12:40:36 10° NNE
Meteor 2-2 Rocket 4.4 12:34:54 10° S 12:40:31 82° E 12:46:14 10° N
CZ-4B R/B 3.1 12:37:25 10° NNE 12:41:27 80° E 12:45:42 10° S
Cosmos 1743 Rocket 3.8 12:38:55 10° NNW 12:43:12 47° W 12:47:28 10° SSW
SL-8 R/B 4.2 12:39:28 13° WSW 12:43:35 51° NNW 12:48:18 10° NE
DELTA 2 R/B(2) 4.3 12:41:14 12° W 12:44:02 57° N 12:46:46 10° ENE
Cosmos 2346 Rocket 4.4 12:39:57 10° S 12:46:00 85° W 12:52:05 10° N
MSX 3.9 12:43:40 10° N 12:49:22 60° WNW 12:55:00 10° SSW
CZ-4B R/B 3.9 12:45:17 10° N 12:49:32 87° WNW 12:53:33 10° SSW
Cosmos 2034 Rocket 4.0 12:49:26 10° NNW 12:55:39 65° W 13:01:46 10° S
Cosmos 1943 3.5 12:50:13 10° NW 12:55:39 47° WSW 13:01:03 10° S
PAYLOAD A 4.2 12:50:41 10° N 12:55:48 58° WNW 13:00:43 10° SSW
Cosmos 1464 Rocket 4.3 12:51:30 10° NNW 12:57:22 44° W 13:03:17 10° SSW
Cosmos 1455 4.2 12:56:29 10° W 12:58:06 12° WNW 12:59:44 10° NW
PSLV R/B 4.1 12:54:05 10° NNE 12:58:12 76° ESE 13:02:18 10° S
Helios 1A Rocket 3.9 12:54:58 10° NNE 12:58:52 49° E 13:02:46 10° S
GPS 2-05 Rocket1 4.3 12:56:42 10° SSW 12:59:02 21° SSE 13:01:24 10° ESE
Cosmos 1805 Rocket 3.6 12:56:39 10° N 13:01:07 87° W 13:05:34 10° S
Cosmos 1603 4.5 12:56:32 10° NW 13:01:17 29° WSW 13:06:02 10° SSW
Cosmos 292 Rocket 4.5 12:59:48 10° S 13:04:32 59° ESE 13:09:18 10° NNE
